{"data":{"norad_id":61258,"epoch":"2026-09-21T10:21:42.991776Z","epoch_age_seconds":111625,"freshness":"FRESH","line1":"1 61258U 24175R   26264.43174759 -.00000144  00000+0  68725-5 0  9993","line2":"2 61258  53.1598   1.2191 0000726  39.8905 320.2151 15.34393892111473","mean_motion":15.34393892,"eccentricity":7.26e-5,"inclination_deg":53.1598,"raan_deg":1.2191,"arg_perigee_deg":39.8905,"mean_anomaly_deg":320.2151,"bstar":6.8725e-6,"rev_number":11147,"period_min":93.848131663444,"perigee_km":462.22474821109,"apogee_km":463.21804084997,"semimajor_km":6840.8583945305,"source":"CELESTRAK","updated_at":"2026-09-22T09:00:49.351193Z"}}